Appleton, MN

11:37 AM CDT on May 26, 2017 (GMT -0500)
Appleton Municipal

Weather History for KAQP - October, 2012

Change the Weather History Date:

Saturday, October 27, 2012

  Actual Average Record
Temperature  
Mean Temperature 32 °F -  
Max Temperature 44 °F 49 °F 78 °F (1999)
Min Temperature 21 °F 31 °F 15 °F (1997)
Degree Days  
Heating Degree Days 32    
Moisture  
Dew Point 23 °F    
Average Humidity 67    
Maximum Humidity 100    
Minimum Humidity 34    
Precipitation  
Precipitation 0.00 in - - ()
Sea Level Pressure  
Sea Level Pressure 30.29 in    
Wind  
Wind Speed 5 mph (SSW)    
Max Wind Speed 12 mph    
Max Gust Speed 16 mph    
Visibility 10 miles    
Events      
Averages and records for this station are not official NWS values.
T = Trace of Precipitation, MM = Missing Value Source: NWS Daily Summary

Daily Weather History Graph

Daily Weather History Graph

Search for Another Location

Airport or City:

Trip Planner

Search our weather history database for the weather conditions in past years. The results will help you decide how hot, cold, wet, or windy it might be!

Date:

Astronomy

Oct. 27, 2012 Rise Set
Actual Time 7:56 AM CDT 6:18 PM CDT
Civil Twilight 7:26 AM CDT 6:48 PM CDT
Nautical Twilight 6:51 AM CDT 7:23 PM CDT
Astronomical Twilight 6:17 AM CDT 7:57 PM CDT
Moon 5:07 PM CDT (10/27) 5:48 AM CDT (10/27)
Length of Visible Light 11h 22m
Length of Day
10h 21m
Waxing Gibbous, 96% of the Moon is Illuminated
Oct 27
Waxing Gibbous
Oct 29
Full
Nov 6
Last Quarter
Nov 13
New
Nov 20
First Quarter

Hourly Weather History & Observations

Time (CDT) Temp. Windchill Dew Point Humidity Pressure Visibility Wind Dir Wind Speed Gust Speed Precip Events Conditions
12:13 AM 33.8 °F 29.6 °F 24.8 °F 70% 30.32 in 10.0 mi SW 4.6 mph - N/A   Overcast
12:33 AM 33.8 °F 29.6 °F 24.8 °F 70% 30.32 in 10.0 mi SW 4.6 mph - N/A   Overcast
12:53 AM 33.8 °F 29.6 °F 26.6 °F 75% 30.32 in 10.0 mi SW 4.6 mph - N/A   Overcast
1:13 AM 33.8 °F 29.6 °F 26.6 °F 75% 30.31 in 10.0 mi SW 4.6 mph - N/A   Overcast
1:33 AM 32.0 °F 27.5 °F 26.6 °F 80% 30.31 in 10.0 mi SW 4.6 mph - N/A   Overcast
1:53 AM 32.0 °F 26.4 °F 26.6 °F 80% 30.31 in 10.0 mi SW 5.8 mph - N/A   Overcast
2:13 AM 30.2 °F 24.3 °F 24.8 °F 80% 30.31 in 10.0 mi SW 5.8 mph - N/A   Overcast
2:53 AM 28.4 °F 22.2 °F 24.8 °F 86% 30.31 in 10.0 mi SW 5.8 mph - N/A   Mostly Cloudy
3:13 AM 26.6 °F 20.0 °F 23.0 °F 86% 30.31 in 10.0 mi WSW 5.8 mph - N/A   Clear
3:33 AM 26.6 °F 20.0 °F 21.2 °F 80% 30.31 in 10.0 mi WSW 5.8 mph - N/A   Clear
3:54 AM 26.6 °F 20.0 °F 21.2 °F 80% 30.31 in 10.0 mi WSW 5.8 mph - N/A   Clear
4:13 AM 24.8 °F 17.9 °F 21.2 °F 86% 30.31 in 10.0 mi WSW 5.8 mph - N/A   Clear
4:33 AM 24.8 °F 19.1 °F 21.2 °F 86% 30.30 in 10.0 mi West 4.6 mph - N/A   Clear
4:53 AM 23.0 °F 17.0 °F 21.2 °F 93% 30.31 in 10.0 mi West 4.6 mph - N/A   Clear
5:13 AM 23.0 °F 15.8 °F 21.2 °F 93% 30.31 in 10.0 mi WSW 5.8 mph - N/A   Clear
5:33 AM 21.2 °F 13.6 °F 19.4 °F 93% 30.31 in 10.0 mi WSW 5.8 mph - N/A   Clear
5:53 AM 21.2 °F 14.9 °F 19.4 °F 93% 30.32 in 10.0 mi WSW 4.6 mph - N/A   Clear
6:13 AM 21.2 °F - 21.2 °F 100% 30.32 in 10.0 mi Calm Calm - N/A   Clear
6:33 AM 24.8 °F - 21.2 °F 86% 30.32 in 10.0 mi Calm Calm - N/A   Clear
6:53 AM 24.8 °F 20.5 °F 21.2 °F 86% 30.32 in 10.0 mi SW 3.5 mph - N/A   Clear
7:13 AM 23.0 °F 17.0 °F 21.2 °F 93% 30.32 in 10.0 mi WSW 4.6 mph - N/A   Clear
7:33 AM 21.2 °F 16.4 °F 21.2 °F 100% 30.32 in 10.0 mi WSW 3.5 mph - N/A   Clear
7:53 AM 23.0 °F - 21.2 °F 93% 30.32 in 10.0 mi Calm Calm - N/A   Clear
8:13 AM 23.0 °F - 21.2 °F 93% 30.33 in 10.0 mi Calm Calm - N/A   Clear
8:33 AM 24.8 °F - 21.2 °F 86% 30.33 in 10.0 mi Calm Calm - N/A   Clear
8:53 AM 26.6 °F - 23.0 °F 86% 30.33 in 10.0 mi Calm Calm - N/A   Clear
9:33 AM 30.2 °F 26.7 °F 24.8 °F 80% 30.34 in 10.0 mi SW 3.5 mph - N/A   Clear
10:13 AM 32.0 °F 28.7 °F 24.8 °F 75% 30.35 in 10.0 mi SW 3.5 mph - N/A   Clear
10:34 AM 33.8 °F 30.8 °F 24.8 °F 70% 30.34 in 10.0 mi WSW 3.5 mph - N/A   Clear
10:53 AM 35.6 °F - 23.0 °F 60% 30.34 in 10.0 mi Calm Calm - N/A   Clear
11:13 AM 37.4 °F - 23.0 °F 56% 30.34 in 10.0 mi Calm Calm - N/A   Clear
11:35 AM 39.2 °F 34.2 °F 21.2 °F 49% 30.33 in 10.0 mi South 6.9 mph - N/A   Clear
11:53 AM 39.2 °F 33.6 °F 21.2 °F 49% 30.33 in 10.0 mi South 8.1 mph - N/A   Clear
12:13 PM 41.0 °F 35.8 °F 24.8 °F 53% 30.32 in 10.0 mi WSW 8.1 mph - N/A   Clear
12:33 PM 42.8 °F 36.6 °F 24.8 °F 49% 30.31 in 10.0 mi SSW 11.5 mph - N/A   Clear
12:53 PM 42.8 °F 37.5 °F 24.8 °F 49% 30.31 in 10.0 mi SW 9.2 mph - N/A   Mostly Cloudy
1:13 PM 41.0 °F 35.8 °F 24.8 °F 53% 30.30 in 10.0 mi SW 8.1 mph 16.1 mph N/A   Scattered Clouds
1:33 PM 42.8 °F 38.0 °F 24.8 °F 49% 30.29 in 10.0 mi SW 8.1 mph - N/A   Mostly Cloudy
1:53 PM 44.6 °F 40.2 °F 21.2 °F 39% 30.28 in 10.0 mi South 8.1 mph - N/A   Mostly Cloudy
2:13 PM 44.6 °F 41.4 °F 21.2 °F 39% 30.28 in 10.0 mi South 5.8 mph - N/A   Clear
2:33 PM 44.6 °F 41.4 °F 21.2 °F 39% 30.27 in 10.0 mi South 5.8 mph - N/A   Scattered Clouds
2:54 PM 44.6 °F 40.2 °F 21.2 °F 39% 30.26 in 10.0 mi South 8.1 mph - N/A   Scattered Clouds
3:14 PM 44.6 °F 40.7 °F 21.2 °F 39% 30.25 in 10.0 mi South 6.9 mph - N/A   Scattered Clouds
3:33 PM 44.6 °F 40.7 °F 19.4 °F 37% 30.24 in 10.0 mi South 6.9 mph - N/A   Clear
3:53 PM 44.6 °F 40.7 °F 19.4 °F 37% 30.24 in 10.0 mi SSE 6.9 mph - N/A   Clear
4:13 PM 44.6 °F 40.2 °F 19.4 °F 37% 30.24 in 10.0 mi SSE 8.1 mph - N/A   Scattered Clouds
4:33 PM 44.6 °F 40.7 °F 17.6 °F 34% 30.24 in 10.0 mi SSW 6.9 mph - N/A   Clear
4:53 PM 44.6 °F 40.2 °F 19.4 °F 37% 30.24 in 10.0 mi SSE 8.1 mph - N/A   Mostly Cloudy
5:13 PM 44.6 °F 40.2 °F 21.2 °F 39% 30.24 in 10.0 mi South 8.1 mph - N/A   Overcast
5:33 PM 42.8 °F 37.5 °F 21.2 °F 42% 30.24 in 10.0 mi South 9.2 mph - N/A   Overcast
5:53 PM 41.0 °F 36.4 °F 23.0 °F 49% 30.24 in 10.0 mi SSE 6.9 mph - N/A   Overcast
6:14 PM 39.2 °F 34.2 °F 24.8 °F 56% 30.24 in 10.0 mi SSE 6.9 mph - N/A   Overcast
6:33 PM 39.2 °F 34.2 °F 24.8 °F 56% 30.25 in 10.0 mi SSE 6.9 mph - N/A   Overcast
6:53 PM 37.4 °F 32.8 °F 26.6 °F 65% 30.26 in 10.0 mi SSE 5.8 mph - N/A   Scattered Clouds
7:13 PM 35.6 °F 29.9 °F 26.6 °F 70% 30.26 in 10.0 mi SSE 6.9 mph - N/A   Scattered Clouds
7:34 PM 35.6 °F 30.7 °F 26.6 °F 70% 30.27 in 10.0 mi SSE 5.8 mph - N/A   Clear
7:53 PM 35.6 °F 30.7 °F 26.6 °F 70% 30.27 in 10.0 mi SSE 5.8 mph - N/A   Clear
8:13 PM 35.6 °F 29.9 °F 26.6 °F 70% 30.27 in 10.0 mi SSE 6.9 mph - N/A   Scattered Clouds
8:34 PM 35.6 °F 30.7 °F 26.6 °F 70% 30.27 in 10.0 mi SSE 5.8 mph - N/A   Scattered Clouds
8:53 PM 35.6 °F 29.9 °F 26.6 °F 70% 30.27 in 10.0 mi SE 6.9 mph - N/A   Scattered Clouds
9:13 PM 35.6 °F 30.7 °F 24.8 °F 65% 30.27 in 10.0 mi SSE 5.8 mph - N/A   Scattered Clouds
9:33 PM 35.6 °F 29.9 °F 24.8 °F 65% 30.27 in 10.0 mi SSE 6.9 mph - N/A   Scattered Clouds
9:53 PM 35.6 °F 29.9 °F 24.8 °F 65% 30.27 in 10.0 mi SSE 6.9 mph - N/A   Scattered Clouds
10:13 PM 33.8 °F 27.7 °F 24.8 °F 70% 30.27 in 10.0 mi SSE 6.9 mph - N/A   Mostly Cloudy
10:33 PM 33.8 °F 28.6 °F 26.6 °F 75% 30.27 in 10.0 mi SE 5.8 mph - N/A   Mostly Cloudy
10:53 PM 35.6 °F 30.7 °F 26.6 °F 70% 30.27 in 10.0 mi SSE 5.8 mph - N/A   Overcast
11:13 PM 35.6 °F 30.7 °F 26.6 °F 70% 30.27 in 10.0 mi SSE 5.8 mph - N/A   Overcast
11:33 PM 35.6 °F 31.7 °F 26.6 °F 70% 30.27 in 10.0 mi SSE 4.6 mph - N/A   Overcast
11:54 PM 35.6 °F - 28.4 °F 75% 30.28 in 10.0 mi Calm Calm - N/A   Overcast